Time,TemperatureF,DewpointF,PressureIn,WindDirection,WindDirectionDegrees,WindSpeedMPH,WindSpeedGustMPH,Humidity,HourlyPrecipIn,Conditions,Clouds,dailyrainin,SolarRadiationWatts/m^2,SoftwareType,DateUTC
2013-09-14 00:42:00,72.0,41.0,-100.00,North,352,4.0,9.0,33,0.00,,,0.00,1.000000,,2013-09-14 07:42:00,
2013-09-14 00:52:00,72.0,41.0,-100.00,North,352,4.0,9.0,33,0.00,,,0.00,1.000000,,2013-09-14 07:52:00,
2013-09-14 01:21:00,73.0,41.0,-100.00,NW,313,2.0,6.0,32,0.00,,,0.00,1.000000,,2013-09-14 08:21:00,
2013-09-14 01:32:00,73.0,41.0,-100.00,NW,313,2.0,6.0,32,0.00,,,0.00,1.000000,,2013-09-14 08:32:00,
2013-09-14 01:42:00,73.0,41.0,-100.00,NW,313,2.0,6.0,32,0.00,,,0.00,1.000000,,2013-09-14 08:42:00,
2013-09-14 01:52:00,73.0,41.0,-100.00,NW,313,2.0,6.0,32,0.00,,,0.00,1.000000,,2013-09-14 08:52:00,
2013-09-14 02:21:00,73.0,40.0,-100.00,NNW,335,2.0,5.0,30,0.00,,,0.00,1.000000,,2013-09-14 09:21:00,
2013-09-14 02:33:00,73.0,40.0,-100.00,NNW,335,2.0,5.0,30,0.00,,,0.00,1.000000,,2013-09-14 09:33:00,
2013-09-14 02:43:00,73.0,40.0,-100.00,NNW,335,2.0,5.0,30,0.00,,,0.00,1.000000,,2013-09-14 09:43:00,
2013-09-14 02:53:00,73.0,40.0,-100.00,NNW,335,2.0,5.0,30,0.00,,,0.00,1.000000,,2013-09-14 09:53:00,
2013-09-14 03:42:00,72.0,39.0,-100.00,NNW,337,3.0,6.0,30,0.00,,,0.00,1.000000,,2013-09-14 10:42:00,
2013-09-14 03:52:00,72.0,39.0,-100.00,NNW,337,3.0,6.0,30,0.00,,,0.00,1.000000,,2013-09-14 10:52:00,
2013-09-14 04:22:00,72.0,38.0,-100.00,North,355,0.0,5.0,29,0.00,,,0.00,1.000000,,2013-09-14 11:22:00,
2013-09-14 04:33:00,72.0,38.0,-100.00,North,355,0.0,5.0,29,0.00,,,0.00,1.000000,,2013-09-14 11:33:00,
2013-09-14 04:42:00,72.0,38.0,-100.00,North,355,0.0,5.0,29,0.00,,,0.00,1.000000,,2013-09-14 11:42:00,
2013-09-14 04:52:00,72.0,38.0,-100.00,North,355,0.0,5.0,29,0.00,,,0.00,1.000000,,2013-09-14 11:52:00,
2013-09-14 05:42:00,73.0,39.0,-100.00,South,174,0.0,4.0,29,0.00,,,0.00,1.000000,,2013-09-14 12:42:00,
2013-09-14 05:52:00,73.0,39.0,-100.00,South,174,0.0,4.0,29,0.00,,,0.00,1.000000,,2013-09-14 12:52:00,
2013-09-14 06:42:00,72.0,41.0,-100.00,SW,229,2.0,5.0,32,0.00,,,0.00,1.000000,,2013-09-14 13:42:00,
2013-09-14 06:52:00,72.0,41.0,-100.00,SW,229,2.0,5.0,32,0.00,,,0.00,1.000000,,2013-09-14 13:52:00,
2013-09-14 07:42:00,71.0,41.0,-100.00,NNW,345,4.0,6.0,34,0.00,,,0.00,7.000000,,2013-09-14 14:42:00,
2013-09-14 07:52:00,71.0,41.0,-100.00,NNW,345,4.0,6.0,34,0.00,,,0.00,7.000000,,2013-09-14 14:52:00,
2013-09-14 08:22:00,73.0,44.0,-100.00,NNW,346,4.0,7.0,35,0.00,,,0.00,157.000000,,2013-09-14 15:22:00,
2013-09-14 08:33:00,73.0,44.0,-100.00,NNW,346,4.0,7.0,35,0.00,,,0.00,157.000000,,2013-09-14 15:33:00,
2013-09-14 08:43:00,73.0,44.0,-100.00,NNW,346,4.0,7.0,35,0.00,,,0.00,157.000000,,2013-09-14 15:43:00,
2013-09-14 08:53:00,73.0,44.0,-100.00,NNW,346,4.0,7.0,35,0.00,,,0.00,157.000000,,2013-09-14 15:53:00,
2013-09-14 09:44:00,76.0,45.0,-100.00,NNW,347,3.0,6.0,33,0.00,,,0.00,408.000000,,2013-09-14 16:44:00,
2013-09-14 09:54:00,76.0,45.0,-100.00,NNW,347,3.0,6.0,33,0.00,,,0.00,408.000000,,2013-09-14 16:54:00,
2013-09-14 10:43:00,81.0,45.0,-100.00,NW,313,3.0,5.0,28,0.00,,,0.00,481.000000,,2013-09-14 17:43:00,
2013-09-14 10:53:00,81.0,45.0,-100.00,NW,313,3.0,5.0,28,0.00,,,0.00,481.000000,,2013-09-14 17:53:00,
2013-09-14 11:22:00,87.0,45.0,-100.00,South,173,6.0,10.0,23,0.00,,,0.00,683.000000,,2013-09-14 18:22:00,
2013-09-14 11:32:00,87.0,45.0,-100.00,South,173,6.0,10.0,23,0.00,,,0.00,683.000000,,2013-09-14 18:32:00,
2013-09-14 11:43:00,87.0,45.0,-100.00,South,173,6.0,10.0,23,0.00,,,0.00,683.000000,,2013-09-14 18:43:00,
2013-09-14 11:52:00,87.0,45.0,-100.00,South,173,6.0,10.0,23,0.00,,,0.00,683.000000,,2013-09-14 18:52:00,
2013-09-14 12:22:00,89.0,38.0,-100.00,South,177,10.0,15.0,17,0.00,,,0.00,860.000000,,2013-09-14 19:22:00,
2013-09-14 12:32:00,89.0,38.0,-100.00,South,177,10.0,15.0,17,0.00,,,0.00,860.000000,,2013-09-14 19:32:00,
2013-09-14 12:42:00,89.0,38.0,-100.00,South,177,10.0,15.0,17,0.00,,,0.00,860.000000,,2013-09-14 19:42:00,
2013-09-14 12:52:00,89.0,38.0,-100.00,South,177,10.0,15.0,17,0.00,,,0.00,860.000000,,2013-09-14 19:52:00,
2013-09-14 13:42:00,90.0,34.0,-100.00,South,171,10.0,18.0,14,0.00,,,0.00,1011.000000,,2013-09-14 20:42:00,
2013-09-14 13:52:00,90.0,34.0,-100.00,South,171,10.0,18.0,14,0.00,,,0.00,1011.000000,,2013-09-14 20:52:00,
2013-09-14 14:44:00,92.0,34.0,-100.00,SSE,166,13.0,22.0,13,0.00,,,0.00,1027.000000,,2013-09-14 21:44:00,
2013-09-14 14:54:00,92.0,34.0,-100.00,SSE,166,13.0,22.0,13,0.00,,,0.00,1027.000000,,2013-09-14 21:54:00,
2013-09-14 15:42:00,91.0,37.0,-100.00,South,184,14.0,24.0,15,0.00,,,0.00,939.000000,,2013-09-14 22:42:00,
2013-09-14 15:53:00,91.0,37.0,-100.00,South,184,14.0,24.0,15,0.00,,,0.00,939.000000,,2013-09-14 22:53:00,
2013-09-14 16:23:00,90.0,38.0,-100.00,South,184,14.0,26.0,16,0.00,,,0.00,783.000000,,2013-09-14 23:23:00,
2013-09-14 16:34:00,90.0,38.0,-100.00,South,184,14.0,26.0,16,0.00,,,0.00,783.000000,,2013-09-14 23:34:00,
2013-09-14 16:42:00,90.0,38.0,-100.00,South,184,14.0,26.0,16,0.00,,,0.00,783.000000,,2013-09-14 23:42:00,
2013-09-14 16:52:00,90.0,38.0,-100.00,South,184,14.0,26.0,16,0.00,,,0.00,783.000000,,2013-09-14 23:52:00,
2013-09-14 17:22:00,86.0,35.0,-100.00,South,186,14.0,22.0,16,0.00,,,0.00,573.000000,,2013-09-15 00:22:00,
2013-09-14 17:32:00,86.0,35.0,-100.00,South,186,14.0,22.0,16,0.00,,,0.00,573.000000,,2013-09-15 00:32:00,
2013-09-14 17:42:00,86.0,35.0,-100.00,South,186,14.0,22.0,16,0.00,,,0.00,573.000000,,2013-09-15 00:42:00,
2013-09-14 17:53:00,86.0,35.0,-100.00,South,186,14.0,22.0,16,0.00,,,0.00,573.000000,,2013-09-15 00:53:00,
2013-09-14 18:22:00,82.0,37.0,-100.00,South,191,15.0,21.0,20,0.00,,,0.00,330.000000,,2013-09-15 01:22:00,
2013-09-14 18:32:00,82.0,37.0,-100.00,South,191,15.0,21.0,20,0.00,,,0.00,330.000000,,2013-09-15 01:32:00,
2013-09-14 18:42:00,82.0,37.0,-100.00,South,191,15.0,21.0,20,0.00,,,0.00,330.000000,,2013-09-15 01:42:00,
2013-09-14 18:52:00,82.0,37.0,-100.00,South,191,15.0,21.0,20,0.00,,,0.00,330.000000,,2013-09-15 01:52:00,
2013-09-14 19:42:00,76.0,41.0,-100.00,South,189,12.0,19.0,28,0.00,,,0.00,25.000000,,2013-09-15 02:42:00,
2013-09-14 19:52:00,76.0,41.0,-100.00,South,189,12.0,19.0,28,0.00,,,0.00,25.000000,,2013-09-15 02:52:00,
2013-09-14 20:22:00,76.0,40.0,-100.00,SSW,198,15.0,17.0,27,0.00,,,0.00,2.000000,,2013-09-15 03:22:00,
2013-09-14 20:34:00,76.0,40.0,-100.00,SSW,198,15.0,17.0,27,0.00,,,0.00,2.000000,,2013-09-15 03:34:00,
2013-09-14 20:44:00,76.0,40.0,-100.00,SSW,198,15.0,17.0,27,0.00,,,0.00,2.000000,,2013-09-15 03:44:00,
2013-09-14 20:55:00,76.0,40.0,-100.00,SSW,198,15.0,17.0,27,0.00,,,0.00,2.000000,,2013-09-15 03:55:00,
2013-09-14 21:24:00,76.0,37.0,-100.00,SSW,203,10.0,17.0,24,0.00,,,0.00,1.000000,,2013-09-15 04:24:00,
2013-09-14 21:33:00,76.0,37.0,-100.00,SSW,203,10.0,17.0,24,0.00,,,0.00,1.000000,,2013-09-15 04:33:00,
2013-09-14 21:43:00,76.0,37.0,-100.00,SSW,203,10.0,17.0,24,0.00,,,0.00,1.000000,,2013-09-15 04:43:00,
2013-09-14 21:54:00,76.0,37.0,-100.00,SSW,203,10.0,17.0,24,0.00,,,0.00,1.000000,,2013-09-15 04:54:00,
2013-09-14 22:22:00,76.0,43.0,-100.00,WSW,247,5.0,11.0,31,0.00,,,0.00,1.000000,,2013-09-15 05:22:00,
2013-09-14 22:34:00,76.0,43.0,-100.00,WSW,247,5.0,11.0,31,0.00,,,0.00,1.000000,,2013-09-15 05:34:00,
2013-09-14 22:42:00,76.0,43.0,-100.00,WSW,247,5.0,11.0,31,0.00,,,0.00,1.000000,,2013-09-15 05:42:00,
2013-09-14 22:52:00,76.0,43.0,-100.00,WSW,247,5.0,11.0,31,0.00,,,0.00,1.000000,,2013-09-15 05:52:00,
2013-09-14 23:21:00,76.0,40.0,-100.00,WNW,284,3.0,8.0,27,0.00,,,0.00,1.000000,,2013-09-15 06:21:00,
2013-09-14 23:32:00,76.0,40.0,-100.00,WNW,284,3.0,8.0,27,0.00,,,0.00,1.000000,,2013-09-15 06:32:00,
2013-09-14 23:42:00,76.0,40.0,-100.00,WNW,284,3.0,8.0,27,0.00,,,0.00,1.000000,,2013-09-15 06:42:00,
2013-09-14 23:52:00,76.0,40.0,-100.00,WNW,284,3.0,8.0,27,0.00,,,0.00,1.000000,,2013-09-15 06:52:00,